Time,TemperatureF,DewpointF,PressureIn,WindDirection,WindDirectionDegrees,WindSpeedMPH,WindSpeedGustMPH,Humidity,HourlyPrecipIn,Conditions,Clouds,dailyrainin,SoftwareType,DateUTC
2013-05-04 11:12:00,54.0,21.0,-100.00,North,10,10.0,12.0,27,-99.99,,,0.00,,2013-05-04 17:12:00,
2013-05-04 11:22:00,54.0,21.0,-100.00,North,10,10.0,12.0,27,-99.99,,,0.00,,2013-05-04 17:22:00,
2013-05-04 11:32:00,55.0,21.0,-100.00,ENE,70,3.0,4.0,26,-99.99,,,0.00,,2013-05-04 17:32:00,
2013-05-04 11:42:00,55.0,21.0,-100.00,ENE,70,3.0,4.0,26,-99.99,,,0.00,,2013-05-04 17:42:00,
2013-05-04 11:52:00,56.0,21.0,-100.00,NNE,25,12.0,17.0,26,-99.99,,,0.00,,2013-05-04 17:52:00,
2013-05-04 12:01:00,56.0,21.0,-100.00,NNE,25,12.0,17.0,26,-99.99,,,0.00,,2013-05-04 18:01:00,
2013-05-04 12:12:00,56.0,21.0,-100.00,NNE,25,12.0,16.0,25,-99.99,,,0.00,,2013-05-04 18:12:00,
2013-05-04 12:21:00,56.0,21.0,-100.00,NNE,25,12.0,16.0,25,-99.99,,,0.00,,2013-05-04 18:21:00,
2013-05-04 12:32:00,56.0,21.0,-100.00,NE,55,12.0,14.0,25,-99.99,,,0.00,,2013-05-04 18:32:00,
2013-05-04 12:42:00,56.0,21.0,-100.00,NE,55,12.0,14.0,25,-99.99,,,0.00,,2013-05-04 18:42:00,
2013-05-04 12:52:00,57.0,20.0,-100.00,NE,45,12.0,14.0,24,-99.99,,,0.00,,2013-05-04 18:52:00,
2013-05-04 13:01:00,57.0,20.0,-100.00,NE,45,12.0,14.0,24,-99.99,,,0.00,,2013-05-04 19:01:00,
2013-05-04 13:11:00,57.0,21.0,-100.00,ENE,65,12.0,14.0,24,-99.99,,,0.00,,2013-05-04 19:11:00,
2013-05-04 13:21:00,57.0,21.0,-100.00,ENE,65,12.0,14.0,24,-99.99,,,0.00,,2013-05-04 19:21:00,
2013-05-04 13:32:00,58.0,21.0,-100.00,ENE,70,3.0,4.0,24,-99.99,,,0.00,,2013-05-04 19:32:00,
2013-05-04 13:42:00,58.0,21.0,-100.00,ENE,70,3.0,4.0,24,-99.99,,,0.00,,2013-05-04 19:42:00,
2013-05-04 13:52:00,58.0,22.0,-100.00,NE,35,11.0,17.0,24,-99.99,,,0.00,,2013-05-04 19:52:00,
2013-05-04 14:02:00,58.0,22.0,-100.00,NE,35,11.0,17.0,24,-99.99,,,0.00,,2013-05-04 20:02:00,
2013-05-04 14:11:00,59.0,21.0,-100.00,NNE,30,8.0,9.0,23,-99.99,,,0.00,,2013-05-04 20:11:00,
2013-05-04 14:22:00,59.0,21.0,-100.00,NNE,30,8.0,9.0,23,-99.99,,,0.00,,2013-05-04 20:22:00,
2013-05-04 14:32:00,59.0,22.0,-100.00,NNE,20,11.0,14.0,23,-99.99,,,0.00,,2013-05-04 20:32:00,
2013-05-04 14:42:00,59.0,22.0,-100.00,NNE,20,11.0,14.0,23,-99.99,,,0.00,,2013-05-04 20:42:00,
2013-05-04 14:52:00,59.0,21.0,-100.00,NE,35,10.0,13.0,23,-99.99,,,0.00,,2013-05-04 20:52:00,
2013-05-04 15:02:00,59.0,21.0,-100.00,NE,35,10.0,13.0,23,-99.99,,,0.00,,2013-05-04 21:02:00,
2013-05-04 15:12:00,59.0,20.0,-100.00,NE,45,7.0,9.0,22,-99.99,,,0.00,,2013-05-04 21:12:00,
2013-05-04 15:22:00,59.0,20.0,-100.00,NE,45,7.0,9.0,22,-99.99,,,0.00,,2013-05-04 21:22:00,
2013-05-04 15:33:00,59.0,19.0,-100.00,NE,40,13.0,14.0,21,-99.99,,,0.00,,2013-05-04 21:33:00,
2013-05-04 15:43:00,59.0,19.0,-100.00,NE,40,13.0,14.0,21,-99.99,,,0.00,,2013-05-04 21:43:00,
2013-05-04 15:53:00,59.0,19.0,-100.00,NNE,25,12.0,14.0,21,-99.99,,,0.00,,2013-05-04 21:53:00,
2013-05-04 16:03:00,59.0,19.0,-100.00,NNE,25,12.0,14.0,21,-99.99,,,0.00,,2013-05-04 22:03:00,
2013-05-04 16:12:00,59.0,19.0,-100.00,East,85,10.0,12.0,21,-99.99,,,0.00,,2013-05-04 22:12:00,
2013-05-04 16:22:00,59.0,19.0,-100.00,East,85,10.0,12.0,21,-99.99,,,0.00,,2013-05-04 22:22:00,
2013-05-04 16:33:00,59.0,20.0,-100.00,NNE,15,12.0,16.0,21,-99.99,,,-99.99,,2013-05-04 22:33:00,
2013-05-04 16:42:00,59.0,20.0,-100.00,NNE,15,12.0,16.0,21,-99.99,,,-99.99,,2013-05-04 22:42:00,
2013-05-04 16:52:00,59.0,19.0,-100.00,North,0,9.0,11.0,21,-99.99,,,-99.99,,2013-05-04 22:52:00,
2013-05-04 17:02:00,59.0,19.0,-100.00,North,0,9.0,11.0,21,-99.99,,,-99.99,,2013-05-04 23:02:00,
2013-05-04 17:12:00,59.0,19.0,-100.00,NE,55,8.0,10.0,21,-99.99,,,-99.99,,2013-05-04 23:12:00,
2013-05-04 17:22:00,59.0,19.0,-100.00,NE,55,8.0,10.0,21,-99.99,,,-99.99,,2013-05-04 23:22:00,
2013-05-04 17:32:00,59.0,20.0,-100.00,NE,35,14.0,16.0,22,-99.99,,,0.00,,2013-05-04 23:32:00,
2013-05-04 17:42:00,59.0,20.0,-100.00,NE,35,14.0,16.0,22,-99.99,,,0.00,,2013-05-04 23:42:00,
2013-05-04 17:52:00,59.0,19.0,-100.00,ENE,65,11.0,14.0,21,-99.99,,,0.00,,2013-05-04 23:52:00,
2013-05-04 18:02:00,59.0,19.0,-100.00,ENE,65,11.0,14.0,21,-99.99,,,0.00,,2013-05-05 00:02:00,
2013-05-04 18:11:00,59.0,19.0,-100.00,NNE,20,8.0,10.0,21,-99.99,,,0.00,,2013-05-05 00:11:00,
2013-05-04 18:21:00,59.0,19.0,-100.00,NNE,20,8.0,10.0,21,-99.99,,,0.00,,2013-05-05 00:21:00,
2013-05-04 18:32:00,59.0,19.0,-100.00,NNE,20,8.0,10.0,21,-99.99,,,0.00,,2013-05-05 00:32:00,
2013-05-04 18:42:00,59.0,19.0,-100.00,NNE,20,8.0,10.0,21,-99.99,,,0.00,,2013-05-05 00:42:00,
2013-05-04 18:51:00,59.0,20.0,-100.00,NE,50,12.0,16.0,22,-99.99,,,-99.99,,2013-05-05 00:51:00,
2013-05-04 19:01:00,59.0,20.0,-100.00,NE,50,12.0,16.0,22,-99.99,,,-99.99,,2013-05-05 01:01:00,
2013-05-04 19:11:00,58.0,19.0,-100.00,ENE,75,11.0,12.0,22,-99.99,,,-99.99,,2013-05-05 01:11:00,
2013-05-04 19:21:00,58.0,19.0,-100.00,ENE,75,11.0,12.0,22,-99.99,,,-99.99,,2013-05-05 01:21:00,
2013-05-04 19:32:00,57.0,17.0,-100.00,ENE,60,11.0,12.0,21,-99.99,,,-99.99,,2013-05-05 01:32:00,
2013-05-04 19:42:00,57.0,17.0,-100.00,ENE,60,11.0,12.0,21,-99.99,,,-99.99,,2013-05-05 01:42:00,
2013-05-04 19:52:00,56.0,18.0,-100.00,ENE,65,9.0,11.0,22,-99.99,,,-99.99,,2013-05-05 01:52:00,
2013-05-04 20:02:00,56.0,18.0,-100.00,ENE,65,9.0,11.0,22,-99.99,,,-99.99,,2013-05-05 02:02:00,
2013-05-04 20:11:00,54.0,18.0,-100.00,ENE,70,8.0,9.0,24,-99.99,,,-99.99,,2013-05-05 02:11:00,
2013-05-04 20:22:00,54.0,18.0,-100.00,ENE,70,8.0,9.0,24,-99.99,,,-99.99,,2013-05-05 02:22:00,
2013-05-04 20:32:00,52.0,18.0,-100.00,ENE,75,8.0,9.0,25,-99.99,,,-99.99,,2013-05-05 02:32:00,
2013-05-04 20:42:00,52.0,18.0,-100.00,ENE,75,8.0,9.0,25,-99.99,,,-99.99,,2013-05-05 02:42:00,
2013-05-04 20:52:00,50.0,18.0,-100.00,East,80,11.0,12.0,27,-99.99,,,-99.99,,2013-05-05 02:52:00,
2013-05-04 21:01:00,50.0,18.0,-100.00,East,80,11.0,12.0,27,-99.99,,,-99.99,,2013-05-05 03:01:00,
2013-05-04 21:11:00,49.0,18.0,-100.00,East,80,11.0,11.0,29,-99.99,,,-99.99,,2013-05-05 03:11:00,
2013-05-04 21:22:00,49.0,18.0,-100.00,East,80,11.0,11.0,29,-99.99,,,-99.99,,2013-05-05 03:22:00,
2013-05-04 21:33:00,48.0,18.0,-100.00,East,80,11.0,12.0,30,-99.99,,,-99.99,,2013-05-05 03:33:00,
2013-05-04 21:42:00,48.0,18.0,-100.00,East,80,11.0,12.0,30,-99.99,,,-99.99,,2013-05-05 03:42:00,
2013-05-04 21:53:00,47.0,18.0,-100.00,East,80,12.0,13.0,31,-99.99,,,-99.99,,2013-05-05 03:53:00,
2013-05-04 22:02:00,47.0,18.0,-100.00,East,80,12.0,13.0,31,-99.99,,,-99.99,,2013-05-05 04:02:00,
2013-05-04 22:12:00,43.0,17.0,-100.00,East,95,8.0,9.0,34,-99.99,,,-99.99,,2013-05-05 04:12:00,
2013-05-04 22:23:00,43.0,17.0,-100.00,East,95,8.0,9.0,34,-99.99,,,-99.99,,2013-05-05 04:23:00,
2013-05-04 22:32:00,43.0,18.0,-100.00,East,90,7.0,8.0,36,-99.99,,,-99.99,,2013-05-05 04:32:00,
2013-05-04 22:43:00,43.0,18.0,-100.00,East,90,7.0,8.0,36,-99.99,,,-99.99,,2013-05-05 04:43:00,
2013-05-04 22:52:00,43.0,19.0,-100.00,East,95,9.0,9.0,37,-99.99,,,-99.99,,2013-05-05 04:52:00,
2013-05-04 23:02:00,43.0,19.0,-100.00,East,95,9.0,9.0,37,-99.99,,,-99.99,,2013-05-05 05:02:00,
2013-05-04 23:12:00,39.0,17.0,-100.00,ESE,110,11.0,11.0,40,-99.99,,,-99.99,,2013-05-05 05:12:00,
2013-05-04 23:21:00,39.0,17.0,-100.00,ESE,110,11.0,11.0,40,-99.99,,,-99.99,,2013-05-05 05:21:00,
2013-05-04 23:32:00,40.0,17.0,-100.00,ESE,110,10.0,11.0,40,-99.99,,,-99.99,,2013-05-05 05:32:00,
2013-05-04 23:42:00,40.0,17.0,-100.00,ESE,110,10.0,11.0,40,-99.99,,,-99.99,,2013-05-05 05:42:00,
2013-05-04 23:52:00,39.0,17.0,-100.00,ESE,105,11.0,11.0,41,-99.99,,,-99.99,,2013-05-05 05:52:00,